Location: Follega
(52.8850°N, 5.7362°E)
Time: 10:45:25
(UTC+00:00)

CARTOSAT-1 - Pass Details

Date: 04 October 2020
Orbit: 616 x 619 km, 97.8° (Epoch: 20 October)

Event Time Altitude Azimuth Distance (km) Brightness Sun altitude
Exits shadow 21:44:25 15° 328° (NNW) 1,704 6.4 -37.6°
Drops below altitude 10° 21:45:12 10° 332° (NNW) 1,993 6.9 -37.7°
Sets 21:47:32 0° 341° (NNW) 2,903 7.9 -37.9°
